Helicity
24 24 20 17 14 9 8 7 11 10 9 10 12 29 54 72 1 126 156 127 111 90 58 72 106 102 69 117 158 178 230 214 205 219 231 343 339 257 221 157 188 192 246 240 162
23 19 13 10 8 5 8 12 12 9 20 27 42 60 67 97 176 226 133 95 93 63 71 96 139 143 131 167 206 191 247 231 388 271 283 337 334 361 327 279 245 177 208 296 236
22 22 21 15 12 10 8 11 10 19 35 53 52 49 53 62 122 98 78 65 55 63 70 89 89 96 116 158 204 246 201 247 209 232 268 260 267 258 288 266 265 380 404 423 395
20 18 17 18 9 7 9 15 7 28 58 59 52 53 66 41 88 88 43 54 49 54 56 59 73 97 112 153 173 178 121 139 154 150 164 173 195 205 205 199 263 277 344 337 335
17 17 14 9 8 9 12 10 18 37 61 68 61 60 64 120 115 33 43 81 60 58 73 71 68 89 100 104 112 61 74 82 97 64 75 105 122 111 136 190 175 144 230 289 286
16 14 10 14 14 16 16 6 33 45 43 71 93 55 91 129 25 43 43 45 60 47 77 63 81 89 92 92 101 110 54 24 23 19 63 71 60 75 60 42 87 118 164 210 243
12 11 13 17 24 32 21 13 44 49 56 85 80 79 205 110 37 50 36 42 44 43 54 74 92 83 140 97 62 42 58 25 25 15 104 78 79 58 35 62 46 97 134 146 250
13 11 15 20 21 35 27 30 48 81 86 74 59 57 124 32 52 66 40 55 90 71 64 66 88 102 104 97 47 50 54 85 94 46 57 54 76 67 66 85 82 92 110 132 218
26 23 27 34 30 45 31 32 43 87 59 52 53 54 64 29 71 59 38 30 45 89 80 86 77 94 84 102 66 79 80 54 32 41 51 74 104 98 78 89 77 71 93 98 206
25 28 40 47 42 42 21 31 69 63 38 47 30 54 56 41 25 33 41 28 71 71 90 87 88 103 87 78 122 73 44 31 60 63 55 41 53 -6 28 51 44 46 76 93 164
25 31 37 34 35 26 19 10 51 106 143 98 48 36 40 18 53 43 41 47 54 93 150 86 113 146 94 63 65 50 74 63 38 12 20 67 95 38 17 52 28 31 41 44 183
25 37 38 30 47 37 4 6 24 52 126 56 15 23 55 45 56 48 34 78 86 131 89 99 136 66 45 43 47 47 25 33 29 -8 62 79 104 66 18 9 41 46 38 69 83
29 32 14 14 54 33 29 -0 4 37 83 24 38 33 32 44 70 53 47 37 88 98 93 88 78 27 36 26 36 13 13 24 72 32 84 121 89 32 21 11 32 50 54 78 57
8 12 5 -6 33 47 36 16 41 32 88 25 37 65 46 27 79 55 59 54 56 72 65 61 52 35 22 22 36 28 60 2 57 37 3 131 48 47 83 58 70 34 66 78 65
9 5 19 44 47 56 60 61 63 18 83 46 64 50 39 72 49 80 45 33 81 31 67 98 30 22 51 64 22 93 67 85 62 54 44 122 35 15 32 79 207 109 77 72 215
6 7 25 54 62 83 65 95 34 36 92 92 83 75 91 98 79 44 56 -10 52 30 63 52 17 22 67 89 27 58 112 48 55 72 53 -4 29 -2 19 110 208 147 230 202 233
17 34 58 39 50 68 96 68 37 71 87 93 86 77 79 89 98 83 91 87 59 72 100 39 33 20 32 14 18 23 16 17 47 52 55 19 15 -0 61 159 87 181 209 116 135
17 63 62 57 65 77 72 14 93 78 63 93 84 87 121 91 115 88 92 121 89 13 51 64 47 17 11 9 53 24 -16 -26 45 30 53 16 35 24 97 128 101 131 77 188 85
49 40 60 38 63 46 26 47 52 72 80 68 74 95 113 109 94 95 116 111 95 33 46 41 51 23 32 -42 -51 15 1 5 43 49 21 17 49 86 95 181 207 158 153 121 141
67 40 45 24 55 24 39 45 55 62 68 80 74 97 82 76 93 122 110 105 79 53 47 80 62 38 39 -41 -41 -31 25 8 22 46 12 19 22 73 135 196 190 176 159 159 118
60 25 59 37 36 58 48 67 67 68 76 73 81 92 101 88 113 102 96 85 65 20 46 51 71 66 40 7 9 16 8 15 43 33 41 27 28 63 108 101 88 88 90 104 148
57 49 74 33 74 50 70 75 73 84 94 91 92 91 96 111 102 96 94 92 88 31 13 68 57 82 44 -24 -36 -34 15 16 28 61 54 58 33 86 68 56 31 46 55 66 63
67 48 46 41 60 67 74 78 66 85 83 99 87 94 106 102 97 116 105 107 89 33 17 47 81 34 45 51 11 -12 40 30 27 23 81 70 66 77 64 50 42 40 57 60 66
97 75 74 61 67 80 91 76 79 88 95 104 106 118 112 112 109 110 110 99 88 48 36 56 81 61 40 44 22 25 58 43 13 16 25 34 67 63 67 63 61 54 56 62 57
98 98 88 95 90 90 86 95 94 77 88 113 94 98 132 118 126 116 106 82 82 56 31 48 80 67 54 79 40 41 51 37 10 9 22 23 17 31 54 63 58 52 55 41 39
155 122 115 119 110 87 92 70 78 102 128 99 107 121 148 132 132 132 138 106 68 62 36 41 72 45 32 38 14 16 -3 1 -10 -2 -2 2 16 7 7 7 38 47 29 34 47
155 153 142 134 123 100 75 91 85 138 101 107 121 139 127 97 80 64 95 94 66 45 53 43 43 30 21 18 -4 8 -25 -2 2 3 11 30 17 18 12 13 10 -0 1 35 50
Wind_Speed
65 66 67 68 68 68 68 68 69 68 64 59 55 53 51 50 46 50 57 54 54 60 58 58 56 53 42 41 40 39 56 66 68 65 63 59 64 53 59 58 55 49 53 55 52
67 68 68 69 69 69 70 71 71 69 62 56 51 50 44 42 48 56 56 57 61 61 62 63 63 58 50 48 45 45 61 67 64 64 67 71 72 76 68 65 61 55 45 54 52
69 70 71 71 71 70 71 71 69 62 58 54 52 49 41 36 41 52 61 63 64 59 56 56 58 54 52 50 49 52 65 64 67 67 75 82 83 77 84 90 67 61 71 67 63
69 69 71 72 73 70 68 68 66 58 58 53 51 48 42 36 50 54 63 64 60 56 54 56 58 58 57 57 52 61 59 64 68 72 79 86 86 96 93 94 89 84 79 74 68
70 71 72 70 71 69 72 71 58 50 55 52 50 43 40 48 53 53 59 63 59 57 54 56 58 59 60 60 60 63 66 66 64 70 77 81 89 95 102 98 94 93 88 80 71
71 71 73 73 74 71 75 70 55 50 47 50 52 44 46 52 52 55 57 65 66 57 50 49 53 53 59 56 60 62 67 73 75 75 76 82 87 84 92 85 98 101 98 88 80
73 73 76 74 74 70 76 61 52 51 46 46 48 46 60 56 51 59 63 67 62 55 53 45 44 45 50 60 53 62 79 77 74 64 63 66 86 83 82 80 91 101 107 101 94
76 76 76 75 75 72 77 54 50 49 49 44 46 45 48 46 52 68 77 72 60 50 44 44 39 43 47 52 57 66 66 78 52 56 55 51 94 80 74 75 86 92 101 105 100
78 79 79 76 73 74 75 49 48 45 45 49 45 43 52 52 65 68 73 70 55 53 47 43 40 45 45 58 66 57 79 78 78 45 59 52 84 70 63 65 78 83 91 98 99
80 82 80 76 68 76 68 41 50 48 45 40 52 44 58 66 58 67 77 57 55 51 47 48 45 47 49 59 79 79 81 75 72 53 55 64 66 94 87 80 86 85 84 89 95
80 82 81 77 64 77 64 44 51 48 61 52 48 51 58 69 44 76 83 57 55 53 59 50 51 58 57 54 58 60 62 63 54 44 48 33 33 47 76 74 79 84 80 89 91
80 81 79 74 54 71 65 55 49 40 49 48 49 53 52 57 56 80 85 66 61 64 61 52 52 51 50 50 53 53 55 42 32 59 51 27 39 29 38 74 75 79 76 83 83
78 81 78 70 48 59 66 57 42 36 41 46 53 57 59 57 59 77 81 63 64 66 61 51 48 49 53 56 53 49 40 37 22 51 20 20 17 35 28 59 67 65 67 76 67
77 80 76 66 47 54 55 54 41 36 43 57 58 59 57 54 57 66 73 62 60 62 57 47 44 50 50 51 54 48 38 52 39 30 66 28 49 44 39 31 35 48 59 69 61
71 76 69 61 49 56 52 46 39 36 54 58 55 47 55 64 58 72 67 60 64 61 53 56 46 52 48 46 46 24 37 39 27 5 20 39 21 33 25 25 27 35 43 67 56
69 73 61 50 50 52 46 42 37 48 59 49 51 61 60 63 61 65 67 68 49 55 53 47 35 37 37 28 3 16 39 33 13 18 30 14 21 20 18 23 27 28 38 36 35
64 67 53 47 56 49 43 42 50 62 49 55 57 59 59 69 65 72 72 82 80 76 75 57 41 40 46 53 26 41 41 48 38 38 26 5 18 24 13 15 19 32 28 23 20
60 55 48 51 51 45 46 48 61 50 49 50 54 55 61 71 62 70 66 69 75 72 60 63 52 49 54 51 12 32 24 38 32 25 16 13 23 19 19 17 14 15 8 19 14
52 47 43 54 51 46 50 60 55 48 48 54 54 56 61 63 63 67 66 62 63 70 66 56 45 36 43 50 40 34 38 24 15 20 23 18 21 29 17 16 14 14 9 4 9
46 44 39 55 49 47 52 51 49 46 47 51 60 56 64 65 65 67 66 54 58 58 47 45 43 33 32 45 42 29 28 25 12 20 23 20 21 19 18 17 20 18 21 19 15
40 41 37 51 45 49 54 49 46 43 45 50 53 54 56 60 57 59 59 50 53 56 41 42 37 35 23 47 39 33 30 26 18 18 23 24 23 32 29 27 25 24 22 23 23
37 43 45 44 47 48 51 47 44 44 42 43 44 47 52 53 54 54 56 51 48 47 46 41 34 35 30 30 32 34 35 30 23 23 23 26 19 19 29 27 25 24 24 25 23
39 41 41 45 43 51 46 47 43 43 42 42 45 42 44 49 55 48 49 45 43 44 45 42 37 40 34 33 36 37 39 37 28 24 22 23 24 20 22 26 27 27 27 26 26
37 44 44 44 45 48 49 46 46 38 40 39 42 40 45 47 42 48 48 44 43 37 38 35 32 29 26 18 41 41 41 38 33 30 26 24 25 26 23 25 27 28 28 27 26
38 39 41 45 49 47 46 43 45 45 36 35 41 36 42 50 48 46 44 45 38 34 37 37 33 28 6 30 22 33 42 38 34 31 28 27 26 26 24 25 28 29 29 29 26
36 39 41 44 42 44 45 43 41 39 36 38 37 38 35 42 43 47 44 43 39 34 37 35 34 34 26 30 33 36 41 40 36 34 31 32 29 29 27 26 26 27 28 29 30
33 34 37 40 42 43 43 40 39 33 31 32 33 36 37 34 31 30 29 27 23 28 32 32 38 37 28 30 45 33 34 37 38 35 34 33 30 32 30 29 30 30 30 30 30
Wind_Direction
12 8 3 1 360 359 359 357 354 353 354 355 356 354 352 356 6 3 352 351 351 344 343 341 341 337 337 329 324 319 301 298 298 296 299 301 294 299 298 289 289 288 283 286 288
12 11 8 3 359 358 357 355 353 353 360 3 3 360 357 4 7 2 355 350 344 344 340 337 334 334 328 324 321 308 301 301 303 299 295 296 294 292 288 287 286 282 285 292 282
13 9 4 2 2 3 2 1 1 4 5 6 5 5 6 10 5 357 349 345 343 347 347 344 340 337 329 326 321 314 303 305 300 300 298 293 290 289 283 276 279 280 281 285 280
17 17 11 5 1 6 8 7 6 10 10 12 10 12 21 16 351 355 350 348 349 350 347 344 341 335 328 323 324 313 311 306 305 303 298 292 291 282 278 275 277 277 281 281 274
17 16 12 12 10 10 5 5 13 21 17 18 17 19 19 6 360 358 354 354 354 349 346 341 337 335 327 323 321 313 312 311 311 306 301 297 289 285 280 278 276 273 273 272 273
16 15 12 9 4 8 4 5 18 21 23 25 24 28 14 0 3 2 359 351 348 347 344 342 337 335 327 324 321 320 315 312 309 306 301 297 293 290 285 282 275 267 264 264 267
11 12 8 8 6 9 4 13 19 20 25 25 21 21 13 8 12 5 0 352 350 348 342 344 343 338 337 327 328 322 315 315 311 309 308 305 294 289 292 285 275 267 259 257 259
5 8 8 6 3 7 2 16 19 22 23 20 19 19 12 20 11 0 353 353 358 3 359 355 354 344 338 335 328 323 322 320 327 321 316 310 296 300 297 286 276 268 259 253 252
0 1 3 3 4 4 2 20 21 22 22 24 19 19 12 13 4 2 359 356 3 6 8 7 360 348 346 336 330 330 321 319 320 328 317 309 305 306 301 292 278 269 260 248 246
357 357 359 2 6 3 6 22 20 25 22 26 22 18 11 1 2 6 2 10 7 6 5 1 358 350 347 340 328 325 323 320 316 322 322 315 309 292 289 284 270 265 259 246 239
358 357 358 0 8 3 12 18 11 12 19 21 21 19 7 3 24 4 2 11 9 9 360 3 356 350 347 345 340 334 329 325 325 327 326 319 291 261 296 282 269 258 255 241 234
358 358 358 1 13 7 14 17 19 20 17 26 24 17 19 17 13 3 4 9 8 2 3 2 360 2 358 351 346 342 339 339 343 324 330 278 272 287 302 278 265 255 247 232 229
359 359 359 2 17 16 17 19 27 33 24 26 22 17 15 14 14 7 8 11 8 2 2 1 3 5 2 0 359 359 358 0 348 277 276 292 297 11 4 270 257 246 239 222 228
358 359 1 7 21 18 19 18 30 37 22 14 15 16 17 18 15 15 13 13 10 4 6 5 7 3 3 6 6 1 13 299 267 271 326 31 353 28 306 299 258 241 221 215 223
0 359 5 14 20 18 15 25 37 43 6 9 15 22 17 18 13 10 17 17 11 7 9 4 7 5 9 10 9 27 271 271 258 275 252 31 57 47 260 268 255 211 212 217 219
1 359 10 21 23 19 24 32 40 20 4 16 15 11 14 15 14 11 16 21 22 14 13 11 19 24 20 16 188 247 281 266 101 76 58 34 107 200 253 249 217 200 207 197 211
0 3 17 24 14 19 30 31 16 9 16 10 9 10 12 8 11 12 13 15 15 9 8 13 25 26 17 6 21 296 304 14 43 40 56 246 197 182 239 227 202 193 185 222 220
357 9 18 21 19 25 23 20 8 14 14 13 10 11 11 9 11 12 15 15 18 16 12 13 19 25 13 3 351 279 280 332 51 277 260 210 158 220 266 261 263 216 261 215 255
358 6 16 8 16 20 21 13 12 14 13 9 9 11 10 12 11 12 17 18 19 19 17 18 23 34 24 323 306 286 306 258 171 168 226 220 194 187 279 257 267 257 310 310 233
357 1 12 4 14 16 18 15 15 17 16 15 9 12 7 9 12 14 16 22 21 24 30 26 20 41 33 327 332 277 281 278 233 223 230 239 217 238 274 264 274 300 285 279 269
4 2 10 5 15 13 10 13 14 18 18 14 12 11 12 11 15 16 17 22 23 21 33 30 37 37 60 353 308 300 300 292 207 225 222 250 265 292 270 266 274 288 294 287 279
8 357 1 10 7 10 8 10 13 15 20 19 20 16 14 16 15 17 16 20 25 25 28 38 42 35 52 260 287 300 306 290 270 273 245 208 227 252 282 277 290 284 306 309 308
2 0 6 6 6 3 6 5 10 12 16 19 15 21 21 16 13 18 20 26 29 31 33 34 41 35 50 48 355 304 303 299 258 222 266 247 255 263 244 274 283 293 300 306 297
359 353 356 3 5 1 0 2 3 15 16 20 17 22 18 17 21 15 18 27 28 42 41 43 44 45 48 56 285 278 285 299 293 272 270 285 271 291 269 250 267 286 290 292 298
353 350 352 351 352 357 359 1 1 3 17 21 17 18 17 13 15 16 20 20 33 45 38 39 38 38 65 230 204 241 267 281 297 290 279 283 301 297 270 257 253 257 278 275 297
343 345 347 347 351 355 357 357 359 6 12 13 14 18 20 14 14 11 18 23 30 38 31 39 36 30 41 20 331 256 272 286 290 295 296 287 292 290 283 284 281 277 270 278 288
341 344 342 345 347 348 351 357 359 9 13 15 18 17 12 11 16 17 18 20 26 30 34 39 32 31 47 349 276 343 268 291 296 303 301 298 310 305 318 319 315 314 315 311 313